Observations for Trim Market St
| Time | AQI | Temp °C | Hum % | Pres Pa | CO μg/m³ | H₂S μg/m³ | NO μg/m³ | NO₂ μg/m³ | O₃ μg/m³ | SO₂ μg/m³ | PM1 μg/m³ | PM2.5 μg/m³ | PM10 μg/m³ |
|---|---|---|---|---|---|---|---|---|---|---|---|---|---|
| Tuesday 7 July 2026 | |||||||||||||
| 23:47 | 1 | 20.6 | 70 | 53,222 | 0 | 0 | 0 | 4.96 | 12.26 | 0 | 0 | 1.6 | 3.14 |
| 23:45 | 1 | 20.7 | 70 | 53,358 | 0 | 0 | 0 | 5.33 | 10.58 | 0 | 1.43 | 3.06 | 5.02 |
| 23:44 | 1 | 20.7 | 70 | 53,432 | 0 | 0 | 0 | 6.84 | 14.91 | 0 | 0.71 | 2.58 | 4.39 |
| 23:42 | 1 | 20.8 | 70 | 53,652 | 0 | 0 | 0 | 6.63 | 14.47 | 0 | 0 | 1.61 | 3.13 |
| 23:35 | 1 | 20.9 | 69 | 54,031 | 0 | 0 | 0 | 6.65 | 13.37 | 0 | 1.43 | 3.57 | 5.64 |
| 23:34 | 1 | 20.9 | 69 | 54,115 | 0 | 0 | 0 | 7.06 | 11.89 | 0 | 0.71 | 2.6 | 4.37 |
| 23:33 | 1 | 21 | 69 | 54,229 | 0 | 0 | 0 | 8.04 | 12.85 | 0 | 1.43 | 2.61 | 4.37 |
| 23:32 | 1 | 21 | 69 | 54,330 | 0 | 0 | 0 | 7.74 | 9.5 | 0 | 1.43 | 3.1 | 5 |
| 23:31 | 1 | 21 | 69 | 54,401 | 0 | 0 | 2.53 | 11.55 | 6.91 | 0 | 1.43 | 2.61 | 4.37 |
| 23:30 | 1 | 21 | 69 | 54,492 | 0.03 | 0 | 3.92 | 13.75 | 5.05 | 0 | 2.85 | 4.56 | 6.9 |
| 23:29 | 1 | 21.1 | 69 | 54,583 | 0 | 0 | 0 | 7.44 | 14.02 | 0 | 1.43 | 2.62 | 5 |
| 23:28 | 1 | 21 | 69 | 54,659 | 0 | 0 | 0 | 6.98 | 11.46 | 0 | 1.43 | 3.6 | 5.63 |
| 23:27 | 1 | 21.1 | 69 | 54,734 | 0 | 0 | 0 | 8.05 | 14.2 | 0 | 1.43 | 3.11 | 4.99 |
| 23:26 | 1 | 21.1 | 69 | 54,786 | 0 | 0 | 0 | 6.86 | 13.46 | 0 | 0.71 | 2.63 | 4.36 |
| 23:25 | 1 | 21.2 | 69 | 54,856 | 0 | 0 | 0 | 6.74 | 15.56 | 0 | 2.14 | 4.1 | 6.26 |
| 23:24 | 1 | 21.2 | 69 | 54,941 | 0 | 0 | 0 | 8.24 | 12.92 | 0 | 0.71 | 3.12 | 4.99 |
| 23:23 | 1 | 21.2 | 68 | 55,015 | 0 | 0 | 0 | 7.46 | 12.28 | 0 | 1.43 | 4.1 | 6.26 |
| 23:22 | 1 | 21.2 | 68 | 55,072 | 0 | 0 | 0 | 5.27 | 18.12 | 0 | 2.14 | 3.62 | 5.62 |
| 23:16 | 1 | 21.4 | 68 | 55,221 | 0 | 0 | 0 | 7.15 | 16.43 | 0 | 0.71 | 3.63 | 5.62 |
| 23:13 | 1 | 21.4 | 68 | 55,357 | 0 | 0 | 0 | 7.77 | 12.88 | 0 | 1.43 | 3.64 | 5.61 |